Find Starlink 31451

NORAD ID: 59366 Int'l Des: 2024-060 Owner: SPXS Country: US Constellation: starlink operational
LEOCIRCULAR

当前视图

正在加载3D地球...

About Starlink 31451

Starlink 31451 (NORAD 59366) is a starlink constellation satellite (v2 mini) launched Mar 31, 2024 by SPXS of US. It operates in LEO, CIRCULAR orbit with a mass of 730.00 kg.

即将过境

Passes for default location (London). Set your location on the main map for personalized predictions.

高度历史

Loading altitude history...

两行轨道根数

1 59366U 24060U 26227.03541969 .00002703 00000-0 10774-3 0 9991
2 59366 43.0010 85.2703 0001451 285.5540 74.5152 15.27576732134281
Epoch: Aug 15, 2026 • Age: 15 hours

当前状态

高度 494.9 km
远地点 / 近地点 N/A
速度 7.62 km/s
星下点 -41.49°S, 126.89°E
发射日期 Mar 31, 2024
运行时间 2.3 years
类型 internet

技术详情

分类 Payload
质量 730.00 kg
干质量 700.00 kg
总质量 730.00 kg
长度 0.30 m
直径 4.10 m
跨度 29.00 m
形状 Box + pan
制造商 SPXS
平台类型 Starlink V2M
阶段状态 In Orbit
所有者/国家 SPXS/US

Most Searched